sat.trackr.live / text

‹ back to catalog

STARLINK-33828

NORAD 63493 · 2025-071A

PAYLOAD ACTIVE UNKNOWN

§ Identity

Operator
Country
US
Launch date
2025-04-07
Launch site
AFWTR
Launch vehicle
Mass (kg)
RCS (m²)

Purposes: comms

External: N2YO · Heavens-Above · Gunter

§ Orbital elements

Epoch: 2026-09-20T09:56:01.505184Z

Period
93.85 min
Inclination
53.1603°
Eccentricity
0.0001026
Mean motion
15.34412811 rev/d
Perigee alt
462.0 km
Apogee alt
463.4 km
Semi-major
6,840.8 km
B*
5.5555e-4
RAAN
310.4550°
Arg perigee
82.6352°
Mean anomaly
277.4767°
Rev number
8,263

§ Raw data

STARLINK-338281 63493U 25071A   26263.41390631  .00018448  00000+0  55555-3 0  99982 63493  53.1603 310.4550 0001026  82.6352 277.4767 15.34412811 82637

JSON: /api/v1/satellites/63493 · /tle

For live sub-satellite position, see the globe view (requires WebGL).

§ Visibility from observer

Set your observer location to see the next 7 days of passes ≥ 10°. The values pass through the URL so the page stays shareable.

No JS? Fill the form by hand. The geolocation button needs JavaScript.